RUBIN 8/PSLV

导读 | 星芒AI

RUBIN 8 是一颗由印度设计的小型卫星,计划通过 PSLV(极地卫星运载火箭)发射升空。该卫星主要用于地球观测和通信实验,旨在支持印度在遥感和空间技术领域的应用。RUBIN 8 的发射将增强印度在小型卫星部署方面的能力,并促进相关科研与商业发展。此次任务展示了印度航天局在低成本、高效率发射方面的优势。

基本信息
目录编号:
32792
目录名称:
RUBIN 8/PSLV
国际标识:
2008-021K
轨道中心:
EARTH
卫星名称:
RUBIN 8/PSLV
卫星全名:
--
卫星状态:
在轨 (已飞行6441 天)
发射日期:
2008-04-28 UTC
国别 :
德国 (DE)
星等 :
--
轨道信息
数据来源 国际轨道数据
星历时间: 2025-12-15T14:10:23+0800
19小时前
查看轨道信息
半长轴: 6989.171km
偏心率: 0.0023717
轨道倾角: 98.138°
近地点辐角 210.039°
升交点赤经 341.670°
平近点角 149.947°
近地点: 594.459km
远地点: 627.613km
周期: 96.917分钟
每日圈数: 14.858135
详细信息
使用方式:
暂无
2D轨道图
3D轨道图
轨道高度分析图
轨道倾角分析图
轨道综合分析图
查看轨道综合分析图